Location: Brabourne
(51.1333°N, 1.0000°E)
Time: 21:47:40
(UTC+00:00)

NOAA 16 DEB - Visible Passes

Search period start: 22 January 2022 00:00
Search period end: 01 February 2022 00:00
Orbit: 845 x 895 km, 98.7° (Epoch: 22 January)

Date Brightness Start Highest point End Pass type
(mag) Time Alt. Az. Time Alt. Az. Time Alt. Az.
22 Jan ? 06:16:56 10° NE 06:20:08 16° E 06:23:20 10° ESE visible
22 Jan ? 17:50:19 10° SE 17:55:35 46° ENE 18:00:49 10° N visible
22 Jan ? 19:31:51 10° SSW 19:36:51 33° W 19:41:50 10° NNW visible
23 Jan ? 06:11:06 10° NE 06:13:51 14° E 06:16:36 10° ESE visible
23 Jan ? 17:44:16 10° SE 17:49:27 42° ENE 17:54:35 10° N visible
23 Jan ? 19:25:31 10° SSW 19:30:37 37° W 19:35:43 10° NNW visible
24 Jan ? 06:05:22 10° ENE 06:07:34 12° E 06:09:45 10° ESE visible
24 Jan ? 17:38:14 10° SE 17:43:18 38° ENE 17:48:20 10° N visible
24 Jan ? 19:19:11 10° SSW 19:24:24 41° W 19:29:36 10° NNW visible
25 Jan ? 05:59:55 10° ENE 06:01:16 11° E 06:02:37 10° E visible
25 Jan ? 17:32:13 10° SE 17:37:09 35° ENE 17:42:05 10° N visible
25 Jan ? 19:12:52 10° S 19:18:10 46° W 19:23:28 10° NNW visible
26 Jan ? 17:26:13 10° ESE 17:31:01 32° ENE 17:35:49 10° N visible
26 Jan ? 19:06:34 10° S 19:11:56 51° W 19:17:18 10° NNW visible
27 Jan ? 17:20:13 10° ESE 17:24:53 29° ENE 17:29:32 10° N visible
27 Jan ? 19:00:18 10° S 19:05:43 56° W 19:11:09 10° NNW visible
28 Jan ? 17:14:15 10° ESE 17:18:45 27° ENE 17:23:15 10° N visible
28 Jan ? 18:54:02 10° S 18:59:30 62° WSW 19:04:58 10° NNW visible
28 Jan ? 20:40:46 10° W 20:41:44 10° W 20:42:42 10° WNW visible
29 Jan ? 18:47:47 10° S 18:53:17 69° WSW 18:58:47 10° NNW visible
29 Jan ? 20:33:26 10° WSW 20:35:26 12° W 20:37:26 10° WNW visible
30 Jan ? 18:41:34 10° S 18:47:04 77° WSW 18:52:36 10° NNW visible
30 Jan ? 20:26:30 10° WSW 20:29:07 13° W 20:31:44 10° NW visible
31 Jan ? 18:35:21 10° SSE 18:40:52 84° WSW 18:46:24 10° NNW visible
31 Jan ? 20:19:44 10° WSW 20:22:49 15° W 20:25:54 10° NW visible
